Weather History for KCLM - January, 2012

Change the Weather History Date:

Sunday, January 15, 2012

  Actual Average Record
Temperature  
Mean Temperature 30 °F -  
Max Temperature 34 °F - - ()
Min Temperature 26 °F - - ()
Degree Days  
Heating Degree Days 35    
Moisture  
Dew Point 28 °F    
Average Humidity 86    
Maximum Humidity 93    
Minimum Humidity 75    
Precipitation  
Precipitation 0.00 in - - ()
Sea Level Pressure  
Sea Level Pressure 30.02 in    
Wind  
Wind Speed 4 mph (SE)    
Max Wind Speed 6 mph    
Max Gust Speed -    
Visibility 6 miles    
Events Snow    
T = Trace of Precipitation, MM = Missing Value Source: NWS Daily Summary

Daily Weather History Graph

Daily Weather History Graph

Search for Another Location

Airport or City:

Trip Planner

Search our weather history database for the weather conditions in past years. The results will help you decide how hot, cold, wet, or windy it might be!

Date:

Astronomy

Jan. 15, 2012 Rise Set
Actual Time 7:59 AM PST 4:47 PM PST
Civil Twilight 7:24 AM PST 5:22 PM PST
Nautical Twilight 6:45 AM PST 6:01 PM PST
Astronomical Twilight 6:08 AM PST 6:38 PM PST
Moon No Moon Rise 10:42 AM PST (1/15)
Length of Visible Light 9h 58m
Length of Day
8h 47m
Waning Gibbous, 56% of the Moon is Illuminated
Jan 15
Waning Gibbous
Jan 16
Last Quarter
Jan 22
New
Jan 30
First Quarter
Feb 7
Full

Hourly Weather History & Observations

Time (PST) Temp. Windchill Dew Point Humidity Pressure Visibility Wind Dir Wind Speed Gust Speed Precip Events Conditions
12:53 AM 32.0 °F - 25.0 °F 75% 29.96 in 10.0 mi North - - N/A   Partly Cloudy
1:53 AM 32.0 °F - 25.0 °F 75% 29.98 in 10.0 mi North - - N/A   Clear
2:53 AM 30.0 °F - 25.0 °F 82% 29.99 in 10.0 mi North - - N/A   Overcast
3:53 AM 28.4 °F - 24.8 °F 86% 29.97 in 10.0 mi North - - N/A   Overcast
4:53 AM 32.0 °F - 27.0 °F 82% 30.00 in 10.0 mi North - - N/A   Overcast
5:02 AM 32.0 °F - 26.6 °F 80% 29.98 in 2.5 mi North - - 0.00 in Snow Light Snow
5:24 AM 32.0 °F - 28.4 °F 87% 29.98 in 5.0 mi North - - 0.00 in Snow Light Snow
5:53 AM 30.9 °F - 28.0 °F 89% 29.99 in 9.0 mi North - - 0.00 in   Overcast
6:53 AM 30.9 °F - 28.0 °F 89% 29.99 in 10.0 mi North - - N/A   Overcast
7:18 AM 30.2 °F - 28.4 °F 93% 29.98 in 10.0 mi North - - 0.00 in   Overcast
7:27 AM 30.2 °F - 26.6 °F 86% 29.98 in 2.0 mi North - - 0.02 in Snow Light Snow
7:31 AM 32.0 °F - 28.4 °F 87% 29.98 in 1.2 mi North - - 0.05 in Snow Light Snow
7:38 AM 32.0 °F - 28.4 °F 87% 29.98 in 2.0 mi North - - 0.05 in Snow Light Snow
7:49 AM 32.0 °F - 30.2 °F 93% 29.99 in 1.2 mi North - - 0.06 in Snow Light Snow
7:53 AM 32.0 °F - 28.4 °F 87% 29.99 in 1.5 mi North - - N/A Snow Light Snow
8:08 AM 32.0 °F - 28.4 °F 87% 29.99 in 1.8 mi North - - 0.00 in Snow Light Snow
8:16 AM 32.0 °F - 28.4 °F 87% 29.99 in 1.8 mi North - - 0.00 in Snow Light Snow
8:25 AM 32.0 °F - 28.4 °F 87% 29.99 in 2.0 mi North - - 0.00 in Snow Light Snow
8:34 AM 32.0 °F - 28.4 °F 87% 30.00 in 1.5 mi North - - 0.00 in Snow Light Snow
8:53 AM 32.0 °F - 28.9 °F 88% 30.01 in 1.5 mi North - - 0.00 in Snow Light Snow
9:05 AM 32.0 °F - 28.4 °F 87% 30.00 in 2.0 mi North - - 0.00 in Snow Light Snow
9:12 AM 32.0 °F - 28.4 °F 87% 30.01 in 1.8 mi North - - 0.00 in Snow Light Snow
9:21 AM 32.0 °F - 28.4 °F 87% 30.01 in 1.5 mi North - - 0.00 in Snow Light Snow
9:28 AM 32.0 °F - 28.4 °F 87% 30.01 in 2.0 mi North - - 0.00 in Snow Light Snow
9:32 AM 32.0 °F - 28.4 °F 87% 30.01 in 3.0 mi North - - 0.00 in Snow Light Snow
9:53 AM 32.0 °F - 28.9 °F 88% 30.03 in 5.0 mi North - - 0.00 in   Overcast
10:04 AM 32.0 °F - 30.2 °F 93% 30.02 in 5.0 mi North - - N/A   Overcast
10:16 AM 33.8 °F - 30.2 °F 87% 30.02 in 2.5 mi North - - 0.00 in Snow Light Snow
10:24 AM 33.8 °F - 30.2 °F 87% 30.02 in 8.0 mi North - - 0.00 in   Overcast
10:51 AM 33.8 °F - 30.2 °F 87% 30.02 in 10.0 mi North - - 0.00 in   Overcast
10:53 AM 33.1 °F - 30.0 °F 89% 30.03 in 10.0 mi North - - 0.00 in   Overcast
11:00 AM 33.8 °F - 30.2 °F 87% 30.02 in 7.0 mi North - - 0.00 in Snow Light Snow
11:17 AM 33.8 °F - 30.2 °F 87% 30.02 in 10.0 mi North - - 0.00 in   Overcast
11:31 AM 33.8 °F - 28.4 °F 81% 30.02 in 10.0 mi North - - 0.00 in   Overcast
11:48 AM 33.8 °F 29.6 °F 30.2 °F 87% 30.02 in 4.0 mi Variable 4.6 mph - 0.00 in Snow Light Snow
11:50 AM 33.8 °F 29.6 °F 30.2 °F 87% 30.02 in 1.8 mi Variable 4.6 mph - 0.00 in Snow Light Snow
11:53 AM 33.1 °F 28.7 °F 30.0 °F 89% 30.03 in 0.8 mi East 4.6 mph - 0.00 in Snow Light Snow
12:07 PM 33.8 °F 30.8 °F 30.2 °F 87% 30.02 in 1.0 mi ESE 3.5 mph - 0.00 in Snow Light Snow
12:12 PM 33.8 °F 29.6 °F 30.2 °F 87% 30.02 in 3.0 mi East 4.6 mph - 0.00 in Snow Light Snow
12:19 PM 33.8 °F 28.6 °F 30.2 °F 87% 30.02 in 3.0 mi ESE 5.8 mph - 0.00 in Snow Light Snow
12:22 PM 33.8 °F 29.6 °F 30.2 °F 87% 30.02 in 1.8 mi SE 4.6 mph - 0.00 in Snow Light Snow
12:33 PM 33.8 °F 29.6 °F 30.2 °F 87% 30.02 in 3.0 mi SSE 4.6 mph - 0.00 in Snow Light Snow
12:53 PM 33.1 °F 30.0 °F 30.0 °F 89% 30.03 in 9.0 mi SSW 3.5 mph - 0.00 in   Overcast
1:53 PM 34.0 °F - 30.0 °F 85% 30.03 in 10.0 mi Calm Calm - N/A   Overcast
2:53 PM 34.0 °F 31.0 °F 28.9 °F 82% 30.04 in 10.0 mi SW 3.5 mph - N/A   Overcast
3:53 PM 34.0 °F - 28.9 °F 82% 30.04 in 10.0 mi Calm Calm - N/A   Overcast
4:08 PM 33.8 °F - 28.4 °F 81% 30.04 in 10.0 mi Calm Calm - N/A   Overcast
4:53 PM 34.0 °F - 28.0 °F 79% 30.05 in 10.0 mi Calm Calm - N/A   Overcast
5:53 PM 32.0 °F - 28.0 °F 85% 30.06 in 10.0 mi Calm Calm - N/A   Mostly Cloudy
6:53 PM 28.4 °F 22.2 °F 26.6 °F 93% 30.05 in 10.0 mi SW 5.8 mph - N/A   Partly Cloudy
7:53 PM 27.0 °F - 24.1 °F 89% 30.07 in 10.0 mi North - - N/A   Clear
8:53 PM 28.0 °F - 23.0 °F 81% 30.09 in 10.0 mi North - - N/A   Clear
9:53 PM 26.1 °F - 21.9 °F 84% 30.09 in 10.0 mi North - - N/A   Clear
10:53 PM 28.0 °F - 21.9 °F 78% 30.11 in 10.0 mi North - - N/A   Clear
11:53 PM 27.0 °F - 21.0 °F 78% 30.10 in 10.0 mi North - - N/A   Clear